Location: Piotrkow Trybunalski
(51.4000°N, 19.6830°E)
Time: 03:50:32
(UTC+02:00)

A-11 Canister half - Pass Details

Date: 29 January 2023
Orbit: 1526 x 1682 km, 47.3° (Epoch: 24 March)

Event Time Altitude Azimuth Distance (km) Brightness Sun altitude
Rises 05:38:19 0° 197° (SSW) 4,663 11.4 -16.4°
Reaches altitude 10° 05:42:00 10° 185° (S) 3,685 11.0 -15.9°
Maximum altitude 05:49:04 25° 135° (SE) 2,704 11.0 -14.8°
Drops below altitude 10° 05:56:12 10° 85° (E) 3,743 12.3 -13.7°
Sets 05:59:58 0° 73° (ENE) 4,752 12.7 -13.1°
